Dewpoint
28 24 28 29 22 21 29 30 25 24 21 31 38 37 41 43 45 45 45 43 44 45 50 51 52 55 55 54 54 54 53 53 54 55 55 54 53 53 52 53 52 51 52 52
27 27 24 27 27 23 24 30 32 33 19 33 40 39 39 42 46 45 46 45 44 44 47 49 49 50 51 55 55 55 54 53 54 55 55 54 54 53 52 53 53 52 52 52
21 26 24 20 25 23 25 28 32 30 32 38 37 37 39 41 43 44 45 45 44 44 46 46 46 47 48 49 54 55 55 54 54 54 54 54 54 54 53 52 53 52 51 51
25 24 12 23 27 30 33 32 30 34 37 36 35 37 37 41 44 44 44 44 43 45 46 45 44 44 46 47 51 55 55 55 55 54 54 54 54 54 54 54 52 50 45 42
23 22 20 22 30 26 32 32 36 32 37 37 35 38 40 44 45 44 44 43 43 44 45 43 42 43 43 45 46 48 54 54 55 55 55 54 54 53 51 47 44 41 39 37
24 19 13 20 28 32 34 30 36 37 37 35 36 32 36 45 43 42 40 40 39 41 42 40 40 41 43 42 43 43 45 49 54 55 55 54 54 46 41 41 37 35 34 34
22 19 23 28 30 31 24 29 37 36 35 35 33 34 42 43 39 38 37 37 38 39 38 37 38 39 40 40 39 41 42 44 45 52 54 51 45 43 38 35 34 32 31 32
21 19 17 28 32 26 32 34 35 34 35 35 41 43 41 38 36 35 34 33 34 36 36 36 36 37 37 37 38 38 38 38 39 40 42 43 40 36 35 33 31 30 30 30
23 22 27 35 35 39 36 32 34 33 36 42 42 39 38 36 34 32 31 32 32 34 35 35 34 34 34 35 36 36 35 35 35 35 35 36 36 35 33 33 32 30 28 27
25 26 34 37 38 39 38 36 41 42 42 39 38 37 35 34 32 30 30 30 30 31 32 33 33 33 33 33 33 32 32 32 33 32 32 32 32 32 31 30 29 27 27 26
33 37 37 39 40 39 40 39 38 37 37 37 36 35 34 32 30 29 28 28 29 30 31 31 32 31 32 31 30 29 28 28 27 28 27 27 28 28 28 28 28 26 26 26
31 36 38 39 39 41 39 39 37 35 34 34 34 33 31 30 28 27 27 27 28 28 29 29 28 28 30 30 28 28 27 26 27 27 27 26 26 27 29 29 29 29 29 28
34 39 38 36 37 37 36 35 35 34 33 31 30 29 28 27 24 24 24 25 25 25 25 26 26 26 27 28 27 26 25 25 25 25 26 26 25 24 23 27 30 30 30 30
38 37 35 35 33 35 35 32 32 30 30 28 27 26 25 23 21 24 24 25 24 21 20 24 26 26 25 26 25 25 24 24 23 23 23 23 23 23 23 21 21 22 27 27
31 31 33 31 30 31 31 32 31 29 27 25 25 25 24 23 24 24 22 17 16 18 18 19 21 25 25 24 22 22 21 20 21 21 21 21 21 21 20 19 19 19 19 20
30 30 28 27 27 29 29 29 30 28 26 24 23 23 22 22 21 22 22 21 19 19 19 19 20 24 24 25 23 22 22 22 21 20 20 20 19 18 17 16 14 14 12 12
26 25 24 24 24 25 27 28 28 27 26 24 23 22 21 20 19 19 19 19 18 19 20 19 19 22 23 23 22 21 20 19 19 18 18 18 18 17 16 14 12 11 10 10
24 23 22 21 21 23 24 24 25 25 24 23 22 16 12 11 13 17 18 19 19 18 19 21 22 21 22 23 22 21 19 18 17 16 16 16 15 14 13 12 10 9 8 8
20 21 20 19 19 21 21 21 22 23 22 22 20 18 16 14 16 17 18 17 16 15 18 21 23 21 21 21 21 20 18 16 15 15 14 13 13 12 11 10 9 8 7 6
17 18 18 17 16 17 17 18 19 18 20 19 17 16 15 13 14 14 14 13 16 18 19 19 19 18 18 19 18 17 16 15 14 13 13 11 10 9 9 7 6 4 3 2
17 16 15 15 14 14 13 15 13 14 14 16 14 13 12 11 11 11 11 11 15 18 18 18 18 17 17 17 16 15 14 13 12 11 10 9 8 7 6 5 4 3 3 1
10 10 8 9 10 9 11 12 13 11 10 10 9 9 9 9 10 11 12 12 15 15 15 15 15 16 16 16 14 13 12 11 11 10 9 8 7 5 4 3 2 1 -2 -5
9 10 7 6 6 5 8 8 8 7 7 7 7 8 9 10 11 9 8 14 15 14 14 13 13 12 12 12 11 10 9 9 8 7 7 6 5 4 3 0 -0 -2 -6 -7
6 7 6 7 7 6 4 6 8 8 7 8 8 9 10 8 9 12 13 12 12 12 12 12 12 11 11 10 10 9 8 7 6 5 5 3 3 1 -1 -3 -6 -7 -8 -9
8 5 4 5 6 6 6 6 7 7 7 7 8 10 10 11 9 10 11 11 12 10 9 10 10 9 8 8 8 7 7 6 5 4 3 2 1 -1 -2 -4 -7 -8 -10 -11
14 10 6 6 7 6 7 6 5 5 6 6 7 8 9 10 10 10 10 9 9 9 9 9 8 7 6 5 6 6 6 5 4 3 1 -0 -3 -5 -6 -6 -7 -8 -13 -17
10 10 10 10 11 9 6 4 2 5 7 5 6 9 9 9 9 8 8 8 7 7 7 7 7 5 5 4 4 4 3 3 2 1 -1 -2 -3 -5 -5 -8 -11 -14 -18 -17
Lifted_Index
3 2 1 1 0 0 -0 -0 -0 0 0 0 -0 0 1 1 1 2 2 2 3 3 2 1 0 -0 -1 -2 -1 -1 1 1 2 2 2 2 2 2 1 2 2 2 3 3
3 2 2 1 1 1 1 0 0 0 1 0 -0 0 1 1 1 2 2 3 3 3 3 2 1 -0 -0 -1 -1 -1 -0 1 1 2 2 2 2 2 1 1 1 2 2 2
2 2 2 1 1 2 2 1 1 1 1 0 0 1 1 1 1 2 3 3 4 4 3 3 2 1 1 0 -0 -1 -1 -1 -0 0 1 1 2 2 1 1 1 1 1 2
1 1 1 1 1 1 1 1 1 1 1 1 0 1 1 1 2 3 3 4 4 4 4 4 3 3 2 2 1 -0 -1 -1 -1 -1 -0 0 1 1 1 1 1 0 1 1
1 1 1 0 -0 -0 -0 0 0 0 0 0 0 0 1 1 2 3 4 4 4 4 5 5 5 4 4 3 2 0 -1 -1 -1 -1 -1 -0 0 1 1 1 1 0 1 1
1 1 1 0 0 0 -0 -0 -0 0 0 0 0 0 1 2 3 4 4 4 4 4 5 5 5 5 5 4 3 1 0 -0 -1 -1 -1 -1 -0 -0 0 1 1 1 1 1
2 2 2 1 1 0 0 0 0 0 1 1 1 1 2 3 4 5 5 4 4 4 5 5 5 5 5 5 4 3 1 0 -0 -1 -1 -1 -1 -0 -0 0 0 1 1 1
3 3 2 1 1 1 1 1 0 1 1 1 2 3 4 5 5 6 5 5 5 5 5 6 6 6 5 5 5 4 3 1 0 -0 -0 -0 -1 -1 -0 -0 0 0 1 1
3 3 2 1 1 0 1 1 1 1 1 2 3 4 5 6 6 6 6 5 5 5 6 6 6 6 6 6 6 5 4 3 2 1 1 0 -0 -1 -0 -0 0 0 1 1
2 2 1 1 0 0 0 1 1 1 1 2 3 5 6 7 7 6 6 6 6 6 6 7 7 8 8 8 8 7 6 5 4 3 2 2 1 1 1 1 1 1 1 1
1 1 1 0 0 -0 0 0 1 1 2 2 4 5 7 7 7 7 7 7 6 6 6 7 9 10 10 10 9 8 7 7 6 4 4 3 3 3 4 5 5 5 5 5
1 1 1 0 0 0 0 0 1 1 2 3 5 6 7 7 7 8 8 8 7 7 7 8 10 11 12 12 11 10 9 8 7 6 5 5 5 6 8 11 12 12 12 12
2 2 1 1 0 1 1 1 1 2 3 4 5 6 6 7 7 7 8 8 8 8 8 9 10 11 12 13 13 12 11 10 9 8 8 7 7 8 10 13 14 15 16 16
2 2 2 2 2 2 2 2 3 3 3 4 5 5 6 6 6 7 8 8 8 8 8 8 9 10 12 14 14 13 13 12 12 11 11 10 10 10 11 12 13 15 17 18
2 2 2 3 3 3 3 3 4 4 4 4 5 5 6 6 7 7 8 8 8 7 7 8 9 10 13 14 15 14 14 14 14 14 14 13 13 12 12 12 13 14 17 18
2 3 3 3 3 4 4 4 4 4 4 5 5 6 7 7 8 8 9 9 8 8 7 8 9 11 14 15 15 15 15 15 15 15 15 15 14 14 13 13 14 15 17 19
4 4 4 4 4 4 4 5 5 5 5 6 6 7 8 8 9 9 10 10 9 9 9 10 11 13 14 15 15 15 14 14 14 14 14 14 14 15 15 15 16 17 19 21
6 5 5 5 5 5 5 6 6 6 7 7 8 8 8 8 9 9 10 10 10 10 12 13 14 15 15 15 15 14 14 14 14 14 14 15 16 17 18 18 19 20 21 22
7 7 7 7 7 7 7 7 8 8 8 9 9 9 9 9 9 10 10 10 11 12 14 16 17 17 16 16 16 15 15 14 15 15 16 17 18 19 20 21 21 21 22 22
8 8 8 8 8 9 9 9 9 9 10 10 10 10 10 10 11 11 11 12 13 15 16 18 18 18 17 17 17 16 16 16 17 18 18 19 20 20 21 21 22 22 22 23
8 8 9 9 9 10 11 11 11 11 11 12 12 12 12 13 13 14 14 14 16 18 19 19 18 18 18 17 17 17 17 18 18 19 20 20 20 20 21 22 22 22 23 23
9 9 9 10 10 11 12 13 13 13 13 13 14 14 15 15 16 16 16 17 18 20 20 19 19 18 18 18 18 18 18 19 19 20 20 20 21 21 22 22 22 23 23 24
11 11 11 12 12 13 14 15 15 16 16 16 17 17 18 18 18 18 18 19 20 20 20 20 19 19 19 19 19 19 19 20 20 20 20 21 22 22 22 23 23 23 24 24
13 13 14 14 14 14 15 16 18 18 19 19 20 20 20 20 20 20 20 21 21 21 21 20 20 20 20 20 20 20 20 20 21 21 21 22 22 23 23 23 24 24 24 24
15 15 16 16 16 16 17 18 19 19 20 20 21 21 22 22 21 21 22 22 22 22 21 21 21 21 21 21 21 21 21 21 22 22 22 23 23 23 24 24 24 24 24 24
16 16 16 17 17 18 18 19 19 19 19 20 20 21 22 22 22 22 22 22 22 22 22 22 22 22 22 22 22 22 22 22 23 23 23 23 23 23 24 24 24 24 24 24
16 16 17 17 18 18 19 19 18 19 19 19 20 21 22 22 23 23 23 22 22 22 22 22 23 23 23 23 23 23 23 23 23 23 23 23 23 23 23 23 23 23 23 24